Tracking 29762 objects as of 7-Oct-2024
HD Live streaming from Space Station
objects crossing your sky now

STARLINK-2685

Track STARLINK-2685 now!
10-day predictions
STARLINK-2685 is classified as:


NORAD ID: 48468
Int'l Code: 2021-040AS
Perigee: 553.4 km
Apogee: 555.4 km
Inclination: 53.1 °
Period: 95.6 minutes
Semi major axis: 6925 km
RCS: Unknown
Launch date: May 9, 2021
Source: United States (US)
Launch site: AIR FORCE EASTERN TEST RANGE (AFETR)
Your satellite tracking list
Your tracking list is empty




NASA's NSSDC Master Catalog

Two Line Element Set (TLE):
1 48468U 21040AS  24281.40431382 -.00000516  00000-0 -15756-4 0  9991
2 48468  53.0571 358.2960 0001466  90.4826 269.6331 15.06384994188389
Source of the keplerian elements: AFSPC